Location: Columbia
(38.9520°N, 92.3340°W)
Time: 08:51:16
(UTC-06:00)

Iridium 22 - Visible Passes

Search period start: 24 February 2017 00:00
Search period end: 06 March 2017 00:00
Orbit: 776 x 779 km, 86.4° (Epoch: 23 February)

Date Brightness Start Highest point End Pass type
(mag) Time Alt. Az. Time Alt. Az. Time Alt. Az.
03 Mar 8.2 21:27:21 10° NNW 21:27:46 12° NNW 21:27:46 12° NNW visible
04 Mar 7.7 20:53:43 10° N 20:54:46 16° N 20:54:46 16° N visible
05 Mar 7.4 20:20:24 10° NNE 20:21:48 18° NNE 20:21:48 18° NNE visible
05 Mar 8.5 22:02:00 10° NW 22:02:18 11° NW 22:02:18 11° NW visible
